SWA981 KSLC-KSLC

Flight info

Callsign SWA981
Flight time 0h 27m
Altitude 9000
Route IFR PRACTICE APP
Aircraft B737/M-VGDW/C

Departure

Time 2026-05-04 03:32
Airport Salt Lake City International Airport (KSLC)

Arrival

Time 2026-05-04 03:59
Airport Salt Lake City International Airport (KSLC)
Time Latitude Longitude Altitude Speed Heading
2026-05-04 03:18 40.78854 -111.97799 4235 ft 0 kts 266°
2026-05-04 03:22 40.78854 -111.97800 4235 ft 0 kts 266°
2026-05-04 03:24 40.78854 -111.97799 4235 ft 0 kts 266°
2026-05-04 03:25 40.78855 -111.97782 4235 ft 2 kts 266°
2026-05-04 03:25 40.78856 -111.97762 4235 ft 0 kts 266°
2026-05-04 03:25 40.78856 -111.97757 4235 ft 0 kts 266°
2026-05-04 03:27 40.78854 -111.97763 4235 ft 4 kts 240°
2026-05-04 03:27 40.78816 -111.97721 4235 ft 12 kts 120°
2026-05-04 03:27 40.78779 -111.97666 4235 ft 5 kts 178°
2026-05-04 03:28 40.78709 -111.97667 4235 ft 17 kts 180°
2026-05-04 03:28 40.78582 -111.97664 4235 ft 17 kts 176°
2026-05-04 03:28 40.78468 -111.97652 4235 ft 17 kts 175°
2026-05-04 03:28 40.78335 -111.97637 4235 ft 21 kts 175°
2026-05-04 03:29 40.78170 -111.97619 4235 ft 25 kts 174°
2026-05-04 03:29 40.78009 -111.97586 4235 ft 20 kts 166°
2026-05-04 03:29 40.77878 -111.97546 4235 ft 20 kts 173°
2026-05-04 03:29 40.77728 -111.97525 4235 ft 24 kts 175°
2026-05-04 03:30 40.77581 -111.97508 4235 ft 17 kts 175°
2026-05-04 03:30 40.77503 -111.97501 4235 ft 7 kts 177°
2026-05-04 03:30 40.77473 -111.97499 4235 ft 3 kts 176°
2026-05-04 03:30 40.77422 -111.97473 4235 ft 12 kts 117°
2026-05-04 03:31 40.77463 -111.97357 4235 ft 14 kts 73°
2026-05-04 03:31 40.77493 -111.97318 4235 ft 8 kts
2026-05-04 03:31 40.77642 -111.97333 4235 ft 46 kts 355°
2026-05-04 03:31 40.78151 -111.97390 4235 ft 101 kts 354°
2026-05-04 03:32 40.79026 -111.97493 4235 ft 149 kts 356°
2026-05-04 03:32 40.80194 -111.97631 4395 ft 179 kts 351°
2026-05-04 03:32 40.81434 -111.97928 4994 ft 187 kts 338°
2026-05-04 03:32 40.82482 -111.99085 5295 ft 216 kts 298°
2026-05-04 03:33 40.82809 -112.01076 5829 ft 229 kts 269°
2026-05-04 03:33 40.82808 -112.03207 6345 ft 242 kts 274°
2026-05-04 03:33 40.82896 -112.05459 6996 ft 251 kts 272°
2026-05-04 03:33 40.82922 -112.07780 7849 ft 254 kts 271°
2026-05-04 03:34 40.82952 -112.10123 8506 ft 258 kts 271°
2026-05-04 03:34 40.82995 -112.12496 8888 ft 259 kts 271°
2026-05-04 03:34 40.83051 -112.14877 8993 ft 260 kts 271°
2026-05-04 03:34 40.83116 -112.17268 8984 ft 259 kts 271°
2026-05-04 03:35 40.83184 -112.19626 8983 ft 254 kts 271°
2026-05-04 03:35 40.83248 -112.21932 9211 ft 253 kts 271°
2026-05-04 03:35 40.83131 -112.24284 9876 ft 259 kts 250°
2026-05-04 03:35 40.82132 -112.26228 10538 ft 261 kts 218°
2026-05-04 03:36 40.80589 -112.27391 10904 ft 261 kts 203°
2026-05-04 03:36 40.78898 -112.28307 10996 ft 263 kts 201°
2026-05-04 03:36 40.77198 -112.29187 10997 ft 261 kts 197°
2026-05-04 03:36 40.75421 -112.29276 10965 ft 258 kts 165°
2026-05-04 03:37 40.73773 -112.28377 11020 ft 257 kts 153°
2026-05-04 03:37 40.72193 -112.27274 11015 ft 257 kts 151°
2026-05-04 03:37 40.70624 -112.26147 11010 ft 257 kts 151°
2026-05-04 03:37 40.69055 -112.25024 11008 ft 257 kts 151°
2026-05-04 03:38 40.67498 -112.23915 11008 ft 256 kts 151°
2026-05-04 03:38 40.65932 -112.22800 11008 ft 256 kts 151°
2026-05-04 03:38 40.64365 -112.21685 11008 ft 256 kts 151°
2026-05-04 03:38 40.62799 -112.20568 11008 ft 256 kts 151°
2026-05-04 03:39 40.61230 -112.19448 11007 ft 258 kts 151°
2026-05-04 03:39 40.59645 -112.18318 11013 ft 258 kts 151°
2026-05-04 03:39 40.58076 -112.17204 11008 ft 257 kts 151°
2026-05-04 03:39 40.56520 -112.16041 10999 ft 256 kts 143°
2026-05-04 03:40 40.55229 -112.14489 11008 ft 255 kts 133°
2026-05-04 03:40 40.54041 -112.12750 11009 ft 256 kts 131°
2026-05-04 03:40 40.52849 -112.10970 11008 ft 256 kts 131°
2026-05-04 03:40 40.51689 -112.09237 10975 ft 257 kts 131°
2026-05-04 03:41 40.50509 -112.07473 10896 ft 255 kts 131°
2026-05-04 03:41 40.49357 -112.05745 10740 ft 251 kts 130°
2026-05-04 03:41 40.48613 -112.03694 10375 ft 254 kts 98°
2026-05-04 03:41 40.48666 -112.01382 10148 ft 253 kts 84°
2026-05-04 03:42 40.48997 -111.99120 9849 ft 255 kts 69°
2026-05-04 03:42 40.50089 -111.97282 9518 ft 258 kts 39°
2026-05-04 03:42 40.51569 -111.96004 9270 ft 258 kts 32°
2026-05-04 03:42 40.53119 -111.94821 9060 ft 257 kts 31°
2026-05-04 03:43 40.54687 -111.93711 8991 ft 256 kts 20°
2026-05-04 03:43 40.56449 -111.93411 8949 ft 259 kts
2026-05-04 03:43 40.58285 -111.93508 8662 ft 268 kts 356°
2026-05-04 03:43 40.60145 -111.93682 8260 ft 265 kts 356°
2026-05-04 03:44 40.61937 -111.93946 7885 ft 256 kts 351°
2026-05-04 03:44 40.63667 -111.94331 7520 ft 246 kts 350°
2026-05-04 03:44 40.65319 -111.94705 7117 ft 238 kts 350°
2026-05-04 03:44 40.66912 -111.95064 6723 ft 232 kts 350°
2026-05-04 03:45 40.68467 -111.95405 6595 ft 221 kts 352°
2026-05-04 03:45 40.70010 -111.95590 6777 ft 230 kts 356°
2026-05-04 03:45 40.71608 -111.95727 7391 ft 230 kts 356°
2026-05-04 03:45 40.73223 -111.95845 7990 ft 232 kts 357°
2026-05-04 03:46 40.74847 -111.95953 8599 ft 239 kts 357°
2026-05-04 03:46 40.76577 -111.96070 8900 ft 258 kts 357°
2026-05-04 03:46 40.78409 -111.96174 8969 ft 266 kts 358°
2026-05-04 03:46 40.80250 -111.96336 8983 ft 267 kts 347°
2026-05-04 03:47 40.81841 -111.97471 8963 ft 264 kts 314°
2026-05-04 03:47 40.82695 -111.99558 8985 ft 261 kts 282°
2026-05-04 03:47 40.82905 -112.01935 9030 ft 262 kts 273°
2026-05-04 03:47 40.82983 -112.04353 9020 ft 263 kts 271°
2026-05-04 03:48 40.83048 -112.06752 9009 ft 260 kts 271°
2026-05-04 03:48 40.82687 -112.09037 8951 ft 255 kts 239°
2026-05-04 03:48 40.81437 -112.10599 8966 ft 250 kts 204°
2026-05-04 03:48 40.79748 -112.10983 9012 ft 249 kts 178°
2026-05-04 03:49 40.78015 -112.10754 9033 ft 250 kts 172°
2026-05-04 03:49 40.76297 -112.10427 9020 ft 249 kts 171°
2026-05-04 03:49 40.74585 -112.10097 9013 ft 248 kts 171°
2026-05-04 03:49 40.72878 -112.09771 9006 ft 248 kts 171°
2026-05-04 03:50 40.71189 -112.09447 9005 ft 249 kts 171°
2026-05-04 03:50 40.69483 -112.09118 9005 ft 248 kts 171°
2026-05-04 03:50 40.67777 -112.08794 9005 ft 247 kts 171°
2026-05-04 03:50 40.66078 -112.08470 9006 ft 247 kts 171°
2026-05-04 03:51 40.64376 -112.08143 9008 ft 247 kts 171°
2026-05-04 03:51 40.62696 -112.07819 9008 ft 247 kts 171°
2026-05-04 03:51 40.60975 -112.07485 9009 ft 247 kts 171°
2026-05-04 03:51 40.59272 -112.07155 8976 ft 248 kts 171°
2026-05-04 03:52 40.57594 -112.06834 8906 ft 246 kts 171°
2026-05-04 03:52 40.55922 -112.06512 8755 ft 241 kts 171°
2026-05-04 03:52 40.54258 -112.06193 8556 ft 242 kts 171°
2026-05-04 03:52 40.52589 -112.05867 8514 ft 241 kts 171°
2026-05-04 03:53 40.50928 -112.05545 8511 ft 242 kts 171°
2026-05-04 03:53 40.49371 -112.04772 8471 ft 244 kts 141°
2026-05-04 03:53 40.48451 -112.02931 8491 ft 247 kts 106°
2026-05-04 03:53 40.48259 -112.00683 8538 ft 250 kts 93°
2026-05-04 03:54 40.48316 -111.98400 8500 ft 252 kts 78°
2026-05-04 03:54 40.49158 -111.96438 8480 ft 254 kts 45°
2026-05-04 03:54 40.50592 -111.95070 8534 ft 257 kts 33°
2026-05-04 03:54 40.52135 -111.93878 8529 ft 256 kts 31°
2026-05-04 03:55 40.53787 -111.93231 8458 ft 248 kts
2026-05-04 03:55 40.55477 -111.93385 8240 ft 238 kts 353°
2026-05-04 03:55 40.57072 -111.93677 7989 ft 223 kts 352°
2026-05-04 03:55 40.58575 -111.93957 7685 ft 215 kts 352°
2026-05-04 03:56 40.60024 -111.94177 7336 ft 210 kts 355°
2026-05-04 03:56 40.61465 -111.94312 6986 ft 206 kts 356°
2026-05-04 03:56 40.62881 -111.94466 6635 ft 204 kts 355°
2026-05-04 03:56 40.64294 -111.94622 6287 ft 203 kts 355°
2026-05-04 03:57 40.65672 -111.94772 6125 ft 196 kts 355°
2026-05-04 03:57 40.67037 -111.94921 6072 ft 195 kts 355°
2026-05-04 03:57 40.68401 -111.95071 5996 ft 200 kts 355°
2026-05-04 03:57 40.69801 -111.95225 5783 ft 203 kts 355°
2026-05-04 03:58 40.72548 -111.95504 5347 ft 190 kts 355°
2026-05-04 03:58 40.73825 -111.95611 5113 ft 183 kts 355°
2026-05-04 03:58 40.75054 -111.95892 4846 ft 177 kts 344°
2026-05-04 03:59 40.76255 -111.96224 4575 ft 178 kts 356°
2026-05-04 03:59 40.77499 -111.96213 4305 ft 176 kts 356°
2026-05-04 03:59 40.78665 -111.96206 4236 ft 157 kts 358°
2026-05-04 03:59 40.79497 -111.96208 4235 ft 47 kts
2026-05-04 04:00 40.79736 -111.96206 4235 ft 30 kts
2026-05-04 04:00 40.79801 -111.96101 4235 ft 14 kts 90°
2026-05-04 04:00 40.79791 -111.96008 4235 ft 7 kts 154°
2026-05-04 04:00 40.79749 -111.95999 4235 ft 9 kts 181°
2026-05-04 04:01 40.79649 -111.96001 4235 ft 20 kts 181°
2026-05-04 04:01 40.79484 -111.96007 4235 ft 28 kts 181°
2026-05-04 04:01 40.79272 -111.95997 4235 ft 33 kts 178°
2026-05-04 04:01 40.79024 -111.95997 4235 ft 37 kts 180°
2026-05-04 04:02 40.78781 -111.96000 4235 ft 33 kts 180°
2026-05-04 04:02 40.78564 -111.95999 4235 ft 30 kts 180°
2026-05-04 04:02 40.78364 -111.95997 4235 ft 29 kts 183°
2026-05-04 04:02 40.78165 -111.95999 4235 ft 26 kts 179°
2026-05-04 04:03 40.78006 -111.95996 4235 ft 19 kts 181°
2026-05-04 04:03 40.77888 -111.96005 4235 ft 18 kts 198°
2026-05-04 04:03 40.77735 -111.96060 4235 ft 28 kts 178°
2026-05-04 04:03 40.77509 -111.96057 4235 ft 34 kts 179°
2026-05-04 04:04 40.77346 -111.96063 4235 ft 0 kts 181°
2026-05-04 04:04 40.77344 -111.96063 4235 ft 2 kts 181°
2026-05-04 04:04 40.77338 -111.96063 4235 ft 0 kts 181°
2026-05-04 04:05 40.77324 -111.96064 4235 ft 6 kts 180°
2026-05-04 04:05 40.77264 -111.96072 4235 ft 7 kts 228°
2026-05-04 04:05 40.77262 -111.96161 4235 ft 11 kts 271°
2026-05-04 04:06 40.77278 -111.96209 4235 ft 4 kts 356°
2026-05-04 04:06 40.77283 -111.96209 4235 ft 0 kts 359°
2026-05-04 04:06 40.77372 -111.96210 4235 ft 40 kts
2026-05-04 04:07 40.77893 -111.96211 4235 ft 106 kts
2026-05-04 04:07 40.78823 -111.96213 4235 ft 162 kts
2026-05-04 04:07 40.80112 -111.96223 4479 ft 192 kts 356°
2026-05-04 04:07 40.81440 -111.96471 5229 ft 197 kts 340°
2026-05-04 04:08 40.82478 -111.97592 5462 ft 201 kts 296°
2026-05-04 04:08 40.82687 -111.99372 5867 ft 202 kts 263°
2026-05-04 04:08 40.82579 -112.01312 6210 ft 221 kts 276°
2026-05-04 04:08 40.82549 -112.03409 6660 ft 238 kts 265°
2026-05-04 04:09 40.82494 -112.05686 7054 ft 260 kts 270°
2026-05-04 04:09 40.82550 -112.08151 7449 ft 273 kts 271°
2026-05-04 04:09 40.82613 -112.10611 7817 ft 265 kts 271°
2026-05-04 04:09 40.82675 -112.13009 8186 ft 259 kts 271°
2026-05-04 04:10 40.82738 -112.15350 8554 ft 256 kts 271°
2026-05-04 04:10 40.82806 -112.17691 8907 ft 256 kts 271°
2026-05-04 04:10 40.82874 -112.20051 8997 ft 259 kts 271°
2026-05-04 04:10 40.82941 -112.22428 9002 ft 258 kts 271°
2026-05-04 04:11 40.83007 -112.24787 9006 ft 257 kts 271°
2026-05-04 04:11 40.83074 -112.27172 9157 ft 266 kts 271°
2026-05-04 04:11 40.83143 -112.29657 9754 ft 273 kts 270°
2026-05-04 04:11 40.82756 -112.32038 10608 ft 266 kts 241°
2026-05-04 04:12 40.81519 -112.33815 10814 ft 264 kts 208°
2026-05-04 04:12 40.79780 -112.34403 10946 ft 260 kts 179°
2026-05-04 04:12 40.77957 -112.34195 11028 ft 278 kts 172°
2026-05-04 04:12 40.75974 -112.33821 11034 ft 283 kts 171°
2026-05-04 04:13 40.74073 -112.33452 11017 ft 276 kts 171°
2026-05-04 04:13 40.72209 -112.33090 11002 ft 266 kts 171°
2026-05-04 04:13 40.70417 -112.32742 10996 ft 258 kts 171°
2026-05-04 04:13 40.68746 -112.31986 10949 ft 253 kts 143°
2026-05-04 04:14 40.67731 -112.30188 10958 ft 248 kts 108°
2026-05-04 04:14 40.67602 -112.27923 11016 ft 250 kts 85°
2026-05-04 04:14 40.67836 -112.25637 11034 ft 253 kts 82°
2026-05-04 04:14 40.68118 -112.23346 11024 ft 255 kts 81°
2026-05-04 04:15 40.68405 -112.21043 11015 ft 254 kts 78°
2026-05-04 04:15 40.69205 -112.18997 10967 ft 255 kts 46°
2026-05-04 04:15 40.70622 -112.17630 11008 ft 257 kts 27°
2026-05-04 04:15 40.72233 -112.16626 11020 ft 257 kts 26°
2026-05-04 04:16 40.73858 -112.15623 11012 ft 257 kts 25°
2026-05-04 04:16 40.75478 -112.14624 11007 ft 257 kts 25°
2026-05-04 04:16 40.77101 -112.13621 11004 ft 257 kts 25°
2026-05-04 04:16 40.78715 -112.12622 11002 ft 257 kts 25°
2026-05-04 04:17 40.80317 -112.11631 11004 ft 257 kts 25°
2026-05-04 04:17 40.81961 -112.10642 10999 ft 257 kts 20°
2026-05-04 04:17 40.83691 -112.10158 10842 ft 261 kts
2026-05-04 04:17 40.85524 -112.10264 10499 ft 267 kts 354°
2026-05-04 04:18 40.87377 -112.10548 10156 ft 268 kts 353°
2026-05-04 04:18 40.89212 -112.10822 9796 ft 263 kts 354°
2026-05-04 04:18 40.91016 -112.11053 9430 ft 257 kts 355°
2026-05-04 04:18 40.92771 -112.11250 9091 ft 250 kts 358°
2026-05-04 04:19 40.94478 -112.11051 8738 ft 243 kts 16°
2026-05-04 04:19 40.95932 -112.10046 8408 ft 232 kts 42°
2026-05-04 04:19 40.96876 -112.08390 8112 ft 222 kts 65°
2026-05-04 04:19 40.97197 -112.06476 7831 ft 214 kts 88°
2026-05-04 04:20 40.96965 -112.04583 7547 ft 206 kts 111°
2026-05-04 04:20 40.96236 -112.02995 7287 ft 200 kts 131°
2026-05-04 04:20 40.95140 -112.01917 7036 ft 196 kts 151°
2026-05-04 04:20 40.93871 -112.01305 6784 ft 193 kts 166°
2026-05-04 04:21 40.92550 -112.01049 6537 ft 192 kts 174°
2026-05-04 04:21 40.91215 -112.00952 6284 ft 192 kts 178°
2026-05-04 04:21 40.89874 -112.00932 5989 ft 194 kts 177°
2026-05-04 04:21 40.88541 -112.00830 5758 ft 189 kts 175°
2026-05-04 04:22 40.87253 -112.00687 5540 ft 180 kts 174°
2026-05-04 04:22 40.86038 -112.00545 5302 ft 174 kts 174°
2026-05-04 04:22 40.84851 -112.00398 5064 ft 173 kts 173°
2026-05-04 04:22 40.83647 -112.00222 4836 ft 172 kts 173°
2026-05-04 04:23 40.82468 -112.00112 4642 ft 170 kts 175°
2026-05-04 04:23 40.81304 -112.00000 4391 ft 166 kts 173°
2026-05-04 04:23 40.80164 -111.99854 4236 ft 159 kts 175°
2026-05-04 04:23 40.79227 -111.99748 4235 ft 108 kts 176°
2026-05-04 04:24 40.78652 -111.99684 4235 ft 58 kts 177°
2026-05-04 04:24 40.78452 -111.99544 4235 ft 9 kts 119°
2026-05-04 04:24 40.78442 -111.99519 4235 ft 0 kts 118°
2026-05-04 04:25 40.78442 -111.99518 4235 ft 2 kts 116°
2026-05-04 04:25 40.78457 -111.99449 4235 ft 15 kts 24°
2026-05-04 04:25 40.78604 -111.99462 4235 ft 28 kts 355°
2026-05-04 04:25 40.78845 -111.99486 4235 ft 40 kts 356°
2026-05-04 04:26 40.79114 -111.99514 4235 ft 36 kts 355°
2026-05-04 04:26 40.79359 -111.99534 4235 ft 35 kts 354°
2026-05-04 04:26 40.79587 -111.99566 4235 ft 31 kts 351°
2026-05-04 04:26 40.79796 -111.99602 4235 ft 29 kts 353°
2026-05-04 04:27 40.79974 -111.99628 4235 ft 22 kts 355°
2026-05-04 04:27 40.80107 -111.99639 4235 ft 16 kts
2026-05-04 04:27 40.80239 -111.99646 4235 ft 25 kts 354°
2026-05-04 04:27 40.80457 -111.99673 4235 ft 37 kts 352°
2026-05-04 04:28 40.80691 -111.99703 4235 ft 20 kts 354°
2026-05-04 04:28 40.80787 -111.99715 4235 ft 8 kts 341°
2026-05-04 04:28 40.80797 -111.99750 4235 ft 1 kts 261°
2026-05-04 04:28 40.80793 -111.99768 4235 ft 4 kts 253°
2026-05-04 04:29 40.80789 -111.99783 4235 ft 0 kts 249°
2026-05-04 04:29 40.80787 -111.99790 4235 ft 5 kts 249°
2026-05-04 04:29 40.80774 -111.99890 4235 ft 13 kts 265°
2026-05-04 04:29 40.80749 -111.99932 4235 ft 4 kts 170°
2026-05-04 04:30 40.80674 -111.99918 4235 ft 24 kts 175°
2026-05-04 04:30 40.80298 -111.99873 4235 ft 84 kts 177°
2026-05-04 04:30 40.79527 -111.99784 4235 ft 137 kts 174°
2026-05-04 04:30 40.78417 -111.99657 4254 ft 181 kts 174°
2026-05-04 04:31 40.77140 -111.99498 4925 ft 182 kts 173°
2026-05-04 04:31 40.75872 -111.99547 5595 ft 192 kts 201°
2026-05-04 04:31 40.74911 -112.00761 6251 ft 200 kts 244°
2026-05-04 04:31 40.74810 -112.01095 6335 ft 205 kts 252°